スキッフ彗星

305P/Skiff (2004)

English version
Home page
Updated on July 19, 2014

---------------------------------------------------------------------

・ プロフィール

符号 305P/2004 V1
発見日 2004年11月4日
発見光度 17.9等
発見者 B. Skiff (LONEOS)

・ 写真集

・ 軌道要素

Epoch 2004 Dec. 21.0 TT = JDT 2453360.5
T 2004 Dec. 8.86248 TT                                  MPC
q   1.4184624            (2000.0)            P               Q
n   0.09876174     Peri.  144.76143     +0.88083176     -0.43953045
a   4.6352900      Node   242.23644     +0.37579148     +0.87512042
e   0.6939863      Incl.   11.46732     +0.28795170     +0.20242834
P   9.98
From 141 observations 2004 Oct. 7-2014 July 5, mean residual 0".6.

・ 星図

・ 光度変化

        m1 = 12.2 + 5 logΔ + 30 log r(t - 20)

---------------------------------------------------------------------

軌道要素はM.P.E.C. 2014-N43に掲載されたものです。
星図は StellaNavigator Ver.2.0 for Windows (アストロアーツ 編著 / アスキー出版局刊) で作成したものです。
光度グラフはComet for Windowsで作成したものです。

---------------------------------------------------------------------

Copyright(C) Seiichi Yoshida (comet@aerith.net). All rights reserved.